Location: Downe
(51.3167°N, 0.0500°E)
Time: 13:10:25
(UTC+00:00)

SL-4 R/B - Pass Details

Date: 17 November 2019
Orbit: 428 x 667 km, 51.6° (Epoch: 09 December)

Event Time Altitude Azimuth Distance (km) Brightness Sun altitude
Exits shadow 03:59:44 40° 96° (E) 982 3.6 -30.9°
Drops below altitude 10° 04:02:51 10° 97° (E) 2,091 5.8 -30.5°
Sets 04:05:12 0° 98° (E) 2,996 6.9 -30.1°
